Location: Cheching
(60.0667°N, 164.2167°W)
Time: 13:22:46
(UTC+00:00)

AO-85 - Visible Passes

Search period start: 16 January 2021 00:00
Search period end: 26 January 2021 00:00
Orbit: 521 x 762 km, 64.8° (Epoch: 12 March)

Date Brightness Start Highest point End Pass type
(mag) Time Alt. Az. Time Alt. Az. Time Alt. Az.
17 Jan ? 03:20:01 10° WNW 03:23:12 18° WSW 03:26:31 10° SSW visible
17 Jan ? 17:43:23 10° SSE 17:45:46 15° ESE 17:48:14 10° E visible
18 Jan ? 18:06:16 10° S 18:09:44 26° SE 18:13:24 10° ENE visible
19 Jan ? 16:53:26 10° SE 16:54:35 11° ESE 16:55:45 10° E visible
19 Jan ? 18:29:55 10° SSW 18:33:52 45° SE 18:38:07 10° ENE visible
20 Jan ? 17:15:24 10° SSE 17:18:28 20° ESE 17:21:40 10° ENE visible
21 Jan ? 17:38:44 10° SSW 17:42:31 35° SE 17:46:33 10° ENE visible
22 Jan ? 16:24:47 10° SSE 16:27:14 15° ESE 16:29:46 10° E visible
22 Jan ? 18:02:38 10° SW 18:06:45 59° SE 18:11:10 10° ENE visible
23 Jan ? 16:47:41 10° S 16:51:12 27° SE 16:54:54 10° ENE visible
23 Jan ? 18:26:55 10° WSW 18:31:08 89° NNW 18:35:42 10° ENE visible
24 Jan ? 15:34:44 10° SE 15:36:03 11° ESE 15:37:22 10° E visible
24 Jan ? 17:11:22 10° SSW 17:15:20 46° SE 17:19:37 10° ENE visible
25 Jan ? 15:56:48 10° S 15:59:55 21° ESE 16:03:11 10° ENE visible
25 Jan ? 17:35:28 10° SW 17:39:39 76° SE 17:44:11 10° ENE visible
